Regional Weather Roundup
Issued by NWS

Home | Current Version | Previous Version | Text Only | Print | Product List | Glossary Off
Versions: 1 2 3 4 5 6 7 8 9 10 11 12 13 14 15 16 17 18 19 20 21 22 23 24 25 26 27 28 29 30 31 32 33 34 35 36 37 38 39 40 41 42 43 44 45 46 47 48 49 50

000
ASUS43 KOAX 181202
RWRNE

WEATHER ROUNDUP FOR NEBRASKA
NATIONAL WEATHER SERVICE OMAHA NE
700 AM CDT SAT APR 18 2015

NOTES: SATELLITE DATA IS BEING USED TO AUGMENT CLOUD COVER ABOVE
       12000 FEET.
       "FAIR" INDICATES FEW OR NO CLOUDS BELOW 12,000 FEET WITH NO
       SIGNIFICANT WEATHER AND/OR OBSTRUCTIONS TO VISIBILITY.

  * THESE STATIONS DO NOT REPORT WEATHER SUCH AS RAIN...SNOW OR FOG.

NEZ001>004-019>022-054>056-181300-
NEBRASKA PANHANDLE

CITY           SKY/WX    TMP DP  RH WIND       PRES   REMARKS
SCOTTSBLUFF    CLOUDY    42  50 100 N9        29.92F
6HR MIN TEMP:  42; 6HR MAX TEMP:  42; 6HR PCP:  0.40;

ALLIANCE       CLOUDY    44  43  96 N10       29.89F
6HR MIN TEMP:  44; 6HR MAX TEMP:  48; 6HR PCP:  0.50;

CHADRON        CLOUDY    47  45  93 NE13      29.96S
6HR MIN TEMP:  47; 6HR MAX TEMP:  48; 6HR PCP:  0.13;

SIDNEY         MOCLDY    37  35  92 NW9       29.93F WCI  30
6HR MIN TEMP:  37; 6HR MAX TEMP:  42; 6HR PCP:  0.05;

$$

NEZ057>060-069>072-079>082-181300-
SOUTHWEST NEBRASKA

CITY           SKY/WX    TMP DP  RH WIND       PRES   REMARKS
NORTH PLATTE   MOCLDY    46  43  89 NW5       29.90S
6HR MIN TEMP:  45; 6HR MAX TEMP:  54; 6HR PCP:  0.39;

IMPERIAL       CLEAR     43  42  97 NW6       29.90F
6HR MIN TEMP:  43; 6HR MAX TEMP:  52; 6HR PCP:  0.04;

LEXINGTON      PTCLDY    51  48  92 N6        29.91R
MCCOOK         CLEAR     44  42  93 SW5       29.91R
6HR MIN TEMP:  44; 6HR MAX TEMP:  53; 6HR PCP:  0.03;

$$

NEZ005>010-023>029-035>040-094-181300-
NORTH CENTRAL NEBRASKA

CITY           SKY/WX    TMP DP  RH WIND       PRES   REMARKS
VALENTINE      HVY RAIN  49  47  93 SW6       29.98R FOG
6HR MIN TEMP:  49; 6HR MAX TEMP:  52; 6HR PCP:  0.27;

AINSWORTH      HVY RAIN  51  51  98 CALM      29.97F
BROKEN BOW     CLOUDY    52  50  93 W5        29.90S
6HR MIN TEMP:  52; 6HR MAX TEMP:  56; 6HR PCP:  0.43;

$$

NEZ041-046>049-061>064-073>077-083>087-181300-
SOUTH CENTRAL NEBRASKA

CITY           SKY/WX    TMP DP  RH WIND       PRES   REMARKS
GRAND ISLAND   RAIN      55  53  93 CALM      29.91S FOG
6HR MIN TEMP:  53; 6HR MAX TEMP:  58; 6HR PCP:  0.27;

HASTINGS       LGT RAIN  55  55 100 E9        29.88F
6HR MIN TEMP:  54; 6HR MAX TEMP:  58; 6HR PCP:  0.39;

KEARNEY *      CLOUDY    54  52  94 N3        29.92R
YORK           CLOUDY    57  55  94 SE7       29.90S
$$

NEZ011>018-030>034-042>045-181300-
NORTHEAST NEBRASKA

CITY           SKY/WX    TMP DP  RH WIND       PRES   REMARKS
BLAIR          CLOUDY    60  53  78 E9        29.93R
COLUMBUS *     CLOUDY    57  50  77 E12       29.92F
FREMONT        CLOUDY    60  53  76 NE6       29.93S
TEKAMAH        CLOUDY    58  51  78 N8        29.94R
6HR MIN TEMP:  58; 6HR MAX TEMP:  62; 6HR PCP: TRACE;

$$

NEZ050>053-065>068-078-088>093-181300-
SOUTHEAST NEBRASKA

CITY           SKY/WX    TMP DP  RH WIND       PRES   REMARKS
LINCOLN        CLOUDY    62  55  77 SE7       29.91S
6HR MIN TEMP:  57; 6HR MAX TEMP:  64;

OMAHA EPPLEY   CLOUDY    63  55  75 SE5       29.93R
6HR MIN TEMP:  60; 6HR MAX TEMP:  67; 6HR PCP: TRACE;

FALLS CITY     CLOUDY    59  55  87 E3        29.90S
6HR MIN TEMP:  58; 6HR MAX TEMP:  61;

PLATTSMOUTH    CLOUDY    60  53  78 E6        29.92S
$$

NEZ044-045-051>053-067-181300-
OMAHA AREA

CITY           SKY/WX    TMP DP  RH WIND       PRES   REMARKS
OMAHA EPPLEY   CLOUDY    63  55  75 SE5       29.93R
6HR MIN TEMP:  60; 6HR MAX TEMP:  67; 6HR PCP: TRACE;

BLAIR          CLOUDY    60  53  78 E9        29.93R
FREMONT        CLOUDY    60  53  76 NE6       29.93S
OFFUTT AFB     CLOUDY    61  55  81 E6        29.92R
PLATTSMOUTH    CLOUDY    60  53  78 E6        29.92S
$$



USA.gov is the U.S. government's official web portal to all federal, state and local government web resources and services.